DateTime,F1_A11,F1_S11,BsB_S11,BsG_S11,BsR_S11,BbsB_S11,BbsG_S11,BbsR_S11,BaB_A11,BaG_A11,BaR_A11,T_S11,U_S11,P_S11,T1_A11
2016-09-01T00:00:00Z,0000380,20000600,,,,,,,,,,26.8,02.7,0659.8,34.8
2016-09-01T00:01:00Z,0000380,20000600,,,,,,,,,,26.8,02.7,0659.8,34.8
2016-09-01T00:02:10Z,0000380,40000600,,,,,,,,,,,,0659.7,34.8
2016-09-01T00:04:00Z,0000380,40000600,0001.49,0000.97,0000.52,0000.05,0000.21,0000.00,0000.08,0000.15,-000.09,26.8,02.8,0660.5,34.8
2016-09-01T00:05:00Z,0000380,00000600,-001.02,0000.41,0000.39,0000.62,0000.27,-000.30,0000.03,0000.00,0000.20,26.8,02.8,0660.6,34.8
2016-09-01T00:06:00Z,0000380,00000600,0001.41,0000.55,0000.39,0000.56,0000.13,0000.45,0000.32,0000.24,0000.21,26.7,02.9,0660.6,34.8
2016-09-01T00:07:00Z,0000380,00000600,0000.81,0001.14,0000.92,-000.11,-000.06,0000.34,-000.13,-000.03,-000.01,26.7,02.8,0660.6,34.8
2016-09-01T00:08:00Z,0000380,00000600,0001.09,0001.09,0000.41,-000.03,0000.26,-000.26,0000.29,0000.08,-000.03,26.7,02.8,0660.7,34.8
2016-09-01T00:09:00Z,0000380,00000600,0000.93,0000.52,-000.31,0000.19,0000.54,0000.02,-000.07,0000.05,0000.10,26.6,02.8,0660.7,34.8
2016-09-01T00:10:00Z,0000380,00000600,0000.77,0000.72,0000.25,0000.59,-000.19,0000.19,0000.07,0000.18,0000.31,26.6,02.8,0660.7,34.8
2016-09-01T00:11:00Z,0000380,00000600,0000.44,0000.00,-000.06,-000.19,0000.49,-000.53,0000.31,0000.10,-000.08,26.6,02.8,0660.6,34.8
2016-09-01T00:12:00Z,0000380,00000600,0000.98,0000.55,0000.57,-000.05,0000.19,0000.11,0000.00,0000.11,0000.41,26.6,02.8,0660.6,34.8
2016-09-01T00:13:00Z,0000380,00000600,0000.79,0000.63,0000.94,0000.13,0000.06,0000.22,0000.20,0000.25,-000.28,26.6,02.8,0660.6,34.8
2016-09-01T00:14:00Z,0000380,00000600,0000.18,0000.77,0000.80,0000.26,0000.13,0000.48,0000.23,0000.03,0000.23,26.7,02.8,0660.6,34.8
2016-09-01T00:15:00Z,0000380,00000600,0000.96,0000.04,0000.50,0000.06,-000.10,0000.35,-000.12,0000.08,-000.10,26.7,02.8,0660.6,34.8
2016-09-01T00:16:00Z,0000380,00000600,0001.10,0000.36,0000.15,0000.13,0000.72,0000.27,0000.16,0000.04,0000.13,26.7,02.8,0660.6,34.8
2016-09-01T00:17:00Z,0000380,00000600,0000.46,0001.29,0000.63,-000.29,0000.45,0000.26,0000.17,0000.20,0000.03,26.7,02.9,0660.6,34.8
2016-09-01T00:18:00Z,0000380,00000600,0000.67,0001.22,0000.15,-000.19,0000.13,0000.00,-000.01,0000.21,0000.09,26.7,02.9,0660.7,34.8
2016-09-01T00:19:00Z,0000380,00000600,0000.65,0000.86,0000.47,0000.16,0000.10,0000.37,0000.09,-000.06,0000.15,26.7,02.8,0660.7,34.8
2016-09-01T00:20:00Z,0000380,00000600,0000.78,0000.91,-000.11,0000.88,-000.06,-000.18,0000.21,0000.11,-000.02,26.8,02.8,0660.7,34.8
2016-09-01T00:21:00Z,0000380,00000600,0001.55,0000.82,0000.54,-000.21,-000.14,-000.30,-000.03,-000.02,-000.12,26.8,02.8,0660.7,34.8
2016-09-01T00:22:00Z,0000380,00000600,0001.32,0000.44,0000.18,-000.14,0000.24,-000.19,0000.19,0000.15,0000.15,26.8,02.8,0660.7,34.8
2016-09-01T00:23:00Z,0000380,00000600,0001.20,0000.54,0000.41,-000.06,-000.06,0000.05,0000.05,0000.18,0000.30,26.8,02.8,0660.7,34.8
2016-09-01T00:24:00Z,0000380,00000600,0001.12,0000.81,0000.41,0000.37,0000.29,-000.42,-000.02,-000.22,-000.13,26.8,02.8,0660.7,34.8
2016-09-01T00:25:00Z,0000380,00000600,0000.28,0000.54,0000.40,-000.02,-000.02,-000.29,-000.05,0000.18,0000.35,26.8,02.8,0660.7,34.8
2016-09-01T00:26:00Z,0000380,00000600,0000.58,0001.25,-000.05,-000.37,0000.32,-000.35,0000.19,-000.02,-000.29,26.8,02.8,0660.7,34.8
2016-09-01T00:27:00Z,0000380,00000600,0001.75,-000.07,0000.83,0000.67,-000.11,0000.53,-000.09,0000.01,0000.16,26.7,02.8,0660.7,34.8
2016-09-01T00:28:00Z,0000380,00000600,0000.39,0000.97,0000.46,0000.19,0000.11,-000.16,0000.16,0000.19,-000.13,26.7,02.8,0660.7,34.8
2016-09-01T00:29:00Z,0000380,00000600,0000.04,0000.36,0000.76,-000.10,0000.06,-000.22,0000.24,0000.12,0000.29,26.7,02.9,0660.7,34.8
2016-09-01T00:30:00Z,0000380,00000600,0000.24,0000.57,0000.70,-000.06,0000.35,-000.13,0000.07,0000.11,-000.16,26.7,02.9,0660.6,34.7
2016-09-01T00:31:00Z,0000380,00000600,0000.26,0000.98,0000.75,0000.29,0000.26,0000.16,0000.12,-000.00,0000.37,26.7,02.9,0660.6,34.7
2016-09-01T00:32:00Z,0000380,00000600,0000.31,0001.27,0000.52,0000.26,-000.05,-000.11,0000.10,0000.15,-000.11,26.6,02.8,0660.6,34.7
2016-09-01T00:33:00Z,0000380,00000600,0000.99,0001.41,0000.19,-000.26,0000.22,0000.00,0000.05,0000.07,0000.18,26.6,02.9,0660.6,34.7
2016-09-01T00:34:00Z,0000380,00000600,0002.18,0000.81,0000.24,0000.14,-000.13,0000.06,0000.17,0000.05,-000.11,26.6,02.9,0660.6,34.7
2016-09-01T00:35:00Z,0000380,00000600,0001.28,0000.83,0000.23,0000.18,0000.43,0000.26,0000.09,0000.13,-000.02,26.6,02.8,0660.6,34.7
2016-09-01T00:36:00Z,0000380,00000600,-000.69,0001.15,0000.21,0000.53,0000.11,0000.08,0000.12,-000.02,-000.00,26.6,02.8,0660.6,34.7
2016-09-01T00:37:00Z,0000380,00000600,0000.47,0000.62,0000.33,0000.05,0000.14,0000.21,0000.02,0000.22,0000.51,26.6,02.9,0660.5,34.7
2016-09-01T00:38:00Z,0000380,00000600,-000.34,0001.82,0000.44,0000.54,0000.30,0000.02,0000.07,0000.07,-000.00,26.6,02.9,0660.5,34.7
2016-09-01T00:39:00Z,0000380,00000600,0000.36,0000.52,0000.06,0000.35,0000.54,0000.16,0000.36,0000.12,-000.00,26.6,02.8,0660.5,34.7
2016-09-01T00:40:00Z,0000380,00000600,0000.46,0000.49,0000.53,0000.27,0000.56,0000.24,0000.14,0000.08,0000.18,26.6,02.8,0660.5,34.7
2016-09-01T00:41:00Z,0000380,00000600,0000.72,0000.96,0000.29,-000.02,0000.10,0000.14,0000.03,0000.22,0000.20,26.7,02.9,0660.5,34.7
2016-09-01T00:42:00Z,0000380,00000600,-000.12,0000.86,0000.74,-000.10,0000.00,-000.21,0000.07,0000.06,-000.03,26.7,02.8,0660.5,34.7
2016-09-01T00:43:00Z,0000380,00000600,0000.59,0001.08,0000.10,0000.43,-000.08,-000.26,0000.19,0000.05,-000.03,26.7,02.8,0660.5,34.7
2016-09-01T00:44:00Z,0000380,00000600,0001.49,0000.57,0000.58,0000.58,0000.40,0000.05,0000.04,0000.09,0000.23,26.7,02.8,0660.5,34.7
2016-09-01T00:45:00Z,0000380,00000600,0001.18,0000.95,0000.49,-000.30,-000.02,-000.05,-000.08,0000.02,-000.13,26.7,02.8,0660.5,34.8
2016-09-01T00:46:00Z,0000380,00000600,0000.04,0001.13,0000.41,0000.72,0000.45,0000.21,0000.32,0000.15,0000.21,26.7,02.8,0660.5,34.8
2016-09-01T00:47:00Z,0000380,00000600,0001.30,0000.41,0000.42,0000.42,0000.34,0000.16,-000.11,-000.06,-000.00,26.8,02.8,0660.5,34.8
2016-09-01T00:48:00Z,0000380,00000600,0000.98,0000.81,0000.40,-000.05,0000.11,0000.24,0000.26,0000.18,-000.28,26.7,02.9,0660.5,34.8
2016-09-01T00:49:00Z,0000380,00000600,-000.11,0000.85,0000.29,-000.35,0000.35,0000.11,0000.12,0000.02,0000.78,26.7,02.8,0660.5,34.8
2016-09-01T00:50:00Z,0000380,00000600,0001.39,0000.79,0000.31,0000.37,-000.10,-000.26,0000.09,0000.19,-000.26,26.7,02.7,0660.4,34.8
2016-09-01T00:51:00Z,0000380,00000600,0000.25,0000.82,0000.10,0000.62,0000.27,-000.11,-000.18,-000.04,-000.02,26.7,02.8,0660.4,34.8
2016-09-01T00:52:00Z,0000380,00000600,0001.27,0000.59,0000.00,0000.34,0000.45,-000.03,0000.04,-000.01,0000.05,26.7,02.8,0660.4,34.8
2016-09-01T00:53:00Z,0000380,00000600,0000.55,0000.60,0000.67,0000.02,-000.19,0000.18,0000.20,0000.24,-000.07,26.7,02.8,0660.4,34.8
2016-09-01T00:54:00Z,0000380,00000600,0000.33,0001.70,0000.02,0000.16,0000.65,0000.29,0000.09,0000.02,0000.30,26.7,02.8,0660.4,34.8
2016-09-01T00:55:00Z,0000380,00000600,0000.16,0001.34,0000.80,0000.14,0000.51,0000.08,-000.16,-000.07,0000.28,26.7,02.8,0660.3,34.8
2016-09-01T00:56:00Z,0000380,00000600,0001.39,0000.93,-000.12,0000.29,0000.21,0000.11,0000.14,0000.17,-000.25,26.7,02.8,0660.3,34.8
2016-09-01T00:57:00Z,0000380,40000600,,,,,,,,,,,,0660.3,34.8
2016-09-01T00:58:00Z,0000380,60000600,,,,,,,,,,26.5,02.7,0659.3,34.8
2016-09-01T00:59:00Z,0000380,20000600,,,,,,,,,,26.5,02.7,0659.3,34.8
2016-09-01T01:00:00Z,0000380,20000600,,,,,,,,,,26.6,02.7,0659.3,34.8
2016-09-01T01:01:00Z,0000380,20000600,,,,,,,,,,26.7,02.7,0659.3,34.8
2016-09-01T01:02:00Z,0000380,20000600,,,,,,,,,,26.7,02.7,0659.3,34.8
2016-09-01T01:03:00Z,0000380,60000600,,,,,,,,,,26.7,02.7,0659.3,34.8
2016-09-01T01:04:00Z,0000380,40000600,0000.99,0000.45,0000.42,0000.74,0000.26,-000.08,0000.06,0000.10,-000.33,26.9,02.9,0660.2,34.8
2016-09-01T01:05:00Z,0000380,00000600,0001.72,0000.33,0000.41,-000.22,-000.14,0000.21,-000.06,-000.12,0000.12,26.8,02.8,0660.3,34.8
2016-09-01T01:06:00Z,0000380,00000600,0000.50,0000.46,0000.47,0000.06,0000.26,0000.03,0000.21,0000.26,0000.01,26.8,02.8,0660.3,34.8
2016-09-01T01:07:00Z,0000380,00000600,0001.09,0000.60,0000.31,0000.19,-000.21,0000.05,0000.14,0000.03,-000.05,26.8,02.7,0660.3,34.8
2016-09-01T01:08:00Z,0000380,00000600,0001.87,-000.03,-000.02,0000.38,0000.13,0000.08,0000.16,0000.05,0000.24,26.8,02.7,0660.3,34.8
2016-09-01T01:09:00Z,0000380,00000600,0001.10,0000.43,-000.07,-000.29,0000.32,-000.08,-000.00,-000.12,-000.09,26.8,02.8,0660.2,34.8
2016-09-01T01:10:00Z,0000380,00000600,0000.41,-000.54,0000.63,0000.05,-000.29,0000.35,-000.07,0000.29,0000.17,26.8,02.7,0660.2,34.8
2016-09-01T01:11:00Z,0000380,00000600,0000.78,0000.84,0000.94,0000.26,0000.48,0000.13,0000.12,-000.01,0000.07,26.8,02.8,0660.3,34.8
2016-09-01T01:12:00Z,0000380,00000600,0001.28,0000.71,0000.67,-000.45,0000.14,-000.11,-000.09,0000.15,-000.10,26.8,02.7,0660.2,34.8
2016-09-01T01:13:00Z,0000380,00000600,0001.12,0000.50,-000.14,0000.37,0000.49,-000.19,0000.25,0000.02,-000.01,26.8,02.8,0660.3,34.8
2016-09-01T01:14:00Z,0000380,00000600,0001.22,0000.50,0000.53,-000.27,0000.02,0000.39,0000.08,0000.26,0000.10,26.8,02.8,0660.2,34.8
2016-09-01T01:15:00Z,0000380,00000600,0000.46,0000.42,0000.29,-000.26,-000.06,0000.03,-000.01,-000.16,0000.41,26.7,02.8,0660.3,34.8
2016-09-01T01:16:00Z,0000380,00000600,0001.13,0000.88,0000.69,0000.11,-000.06,0000.06,0000.07,0000.09,-000.10,26.7,02.8,0660.2,34.8
2016-09-01T01:17:00Z,0000380,00000600,0000.29,0001.16,0000.31,0000.14,-000.21,0000.43,0000.13,0000.16,0000.09,26.7,02.8,0660.2,34.8
2016-09-01T01:18:00Z,0000380,00000600,0001.31,0000.39,0000.16,0000.32,0000.11,0000.27,0000.07,0000.07,0000.09,26.7,02.8,0660.2,34.8
2016-09-01T01:19:00Z,0000380,00000600,0000.95,-000.02,0000.63,0000.06,0000.00,0000.50,0000.00,0000.13,0000.10,26.7,02.8,0660.2,34.8
2016-09-01T01:20:00Z,0000380,00000600,0001.60,0000.54,0000.70,0000.30,0000.22,0000.10,0000.22,0000.02,-000.02,26.7,02.8,0660.2,34.8
2016-09-01T01:21:00Z,0000380,00000600,0000.95,0000.69,0000.78,0000.54,-000.14,0000.02,-000.02,0000.06,0000.19,26.8,02.7,0660.2,34.8
2016-09-01T01:22:00Z,0000380,00000600,0001.41,0000.23,0000.02,-000.06,-000.08,0000.03,0000.08,0000.14,-000.22,26.8,02.7,0660.2,34.8
2016-09-01T01:23:00Z,0000380,00000600,0001.57,0000.98,0000.34,-000.85,0000.02,0000.30,0000.15,0000.04,0000.53,26.8,02.7,0660.2,34.8
2016-09-01T01:24:00Z,0000380,00000600,0001.29,0000.65,0000.33,0000.26,-000.19,0000.11,-000.07,0000.08,-000.22,26.8,02.7,0660.2,34.8
2016-09-01T01:25:00Z,0000380,00000600,0001.49,0000.96,0001.00,0000.63,0000.19,0000.13,0000.18,0000.13,-000.16,26.8,02.7,0660.2,34.8
2016-09-01T01:26:00Z,0000380,00000600,0001.87,0000.61,0000.32,-000.22,-000.22,0000.13,0000.04,-000.09,0000.30,26.8,02.7,0660.2,34.8
2016-09-01T01:27:00Z,0000380,00000600,0001.19,0000.16,0000.58,0000.79,0000.19,0000.08,-000.03,-000.01,-000.09,26.8,02.7,0660.2,34.8
2016-09-01T01:28:00Z,0000380,00000600,0000.73,0000.60,0000.26,0000.61,0000.65,-000.08,0000.20,0000.21,-000.11,26.8,02.7,0660.1,34.8
2016-09-01T01:29:00Z,0000380,00000600,0000.84,0000.23,0000.47,0000.08,-000.13,0000.24,0000.06,-000.06,-000.08,26.8,02.7,0660.1,34.8
2016-09-01T01:30:00Z,0000380,00000600,0000.88,0000.37,0000.32,-000.16,0000.43,-000.03,0000.11,0000.19,0000.45,26.8,02.7,0660.1,34.8
2016-09-01T01:31:00Z,0000380,00000600,0001.76,0000.24,0000.30,0000.83,-000.54,-000.11,0000.06,0000.18,0000.08,26.8,02.7,0660.1,34.8
2016-09-01T01:32:00Z,0000380,00000600,0000.99,-000.08,-000.02,-000.55,-000.10,-000.50,0000.13,-000.12,-000.20,26.8,02.7,0660.1,34.8
2016-09-01T01:33:00Z,0000380,00000600,0001.24,0000.50,0000.29,0000.19,-000.10,-000.24,-000.04,0000.11,0000.08,26.8,02.6,0660.1,34.8
2016-09-01T01:34:00Z,0000380,00000600,0000.60,0000.34,0000.29,0000.38,0000.03,0000.10,-000.04,0000.12,0000.17,26.8,02.6,0660.1,34.8
2016-09-01T01:35:00Z,0000380,00000600,0001.25,-000.06,0000.06,-000.06,0000.08,-000.26,0000.04,0000.04,0000.15,26.8,02.6,0660.1,34.8
2016-09-01T01:36:00Z,0000380,00000600,0000.62,0000.69,0000.42,0000.40,-000.34,0000.29,0000.09,0000.10,-000.17,26.9,02.6,0660.1,34.8
2016-09-01T01:37:00Z,0000380,00000600,0001.27,0000.32,-000.13,-000.40,0000.00,0000.35,0000.06,0000.00,0000.47,26.9,02.6,0660.1,34.8
2016-09-01T01:38:00Z,0000380,00000600,0000.82,0000.41,0000.84,0000.38,0000.53,0000.16,-000.08,0000.01,-000.52,26.9,02.6,0660.1,34.8
2016-09-01T01:39:00Z,0000380,00000600,0000.79,0000.60,0000.46,0000.75,0000.08,0000.00,0000.37,0000.09,0000.36,27.0,02.6,0660.1,34.8
2016-09-01T01:40:00Z,0000380,00000600,0000.96,0000.76,0000.53,-000.45,0000.08,0000.11,-000.11,-000.10,-000.02,26.9,02.5,0660.1,34.8
2016-09-01T01:41:00Z,0000380,00000600,0001.36,0000.96,0000.44,0000.11,0000.46,-000.05,0000.17,0000.49,0000.04,26.9,02.6,0660.1,34.8
2016-09-01T01:42:00Z,0000380,00000600,0000.54,0000.98,0000.00,0000.34,-000.32,0000.06,-000.02,-000.21,-000.19,26.9,02.5,0660.1,34.8
2016-09-01T01:43:00Z,0000380,00000600,0001.37,0000.65,0000.41,0000.03,0000.38,0000.10,0000.18,0000.02,0000.27,27.0,02.5,0660.1,34.8
2016-09-01T01:44:00Z,0000380,00000600,0001.93,0000.20,-000.28,0000.11,0000.18,0000.10,-000.05,0000.18,-000.26,27.0,02.5,0660.1,34.8
2016-09-01T01:45:00Z,0000380,00000600,0001.09,0000.15,0000.52,0000.50,-000.29,0000.31,0000.13,-000.11,0000.23,27.0,02.5,0660.1,34.8
2016-09-01T01:46:00Z,0000380,00000600,0001.09,0000.20,0000.27,0000.19,0000.03,0000.02,0000.17,0000.22,0000.22,27.0,02.5,0660.0,34.8
2016-09-01T01:47:00Z,0000380,00000600,0000.49,0000.62,0001.52,0000.21,0000.29,0000.31,-000.15,0000.04,0000.14,27.0,02.4,0660.0,34.8
2016-09-01T01:48:00Z,0000380,00000600,0000.63,0000.48,0000.31,-000.34,0000.14,0000.37,0000.20,0000.01,-000.20,27.0,02.4,0660.0,34.8
2016-09-01T01:49:00Z,0000380,00000600,0001.20,0000.27,0000.71,0000.34,-000.27,0000.64,0000.05,-000.09,-000.01,27.0,02.5,0660.0,34.8
2016-09-01T01:50:00Z,0000380,00000600,0000.50,0000.55,0000.30,0000.35,0000.08,0000.11,0000.01,0000.29,0000.36,27.0,02.4,0660.0,34.8
2016-09-01T01:51:00Z,0000380,00000600,0000.65,0000.65,0000.51,-000.03,0000.53,0000.00,0000.14,0000.18,-000.05,27.0,02.4,0659.9,34.8
2016-09-01T01:52:00Z,0000380,00000600,0000.82,-000.02,-000.04,0000.24,-000.10,-000.11,0000.13,0000.08,-000.05,27.1,02.4,0659.9,34.8
2016-09-01T01:53:00Z,0000380,00000600,0000.55,0000.75,0000.50,0000.05,0000.03,-000.05,0000.16,-000.16,0000.10,27.1,02.5,0659.9,34.8
2016-09-01T01:54:00Z,0000380,00000600,0000.62,0000.91,0000.56,0000.27,-000.11,0000.06,0000.13,0000.14,0000.03,27.1,02.5,0659.9,34.8
2016-09-01T01:55:00Z,0000380,00000600,0001.60,-000.05,0000.52,0000.69,-000.13,0000.10,-000.15,0000.11,0000.35,27.1,02.4,0659.9,34.8
2016-09-01T01:56:00Z,0000380,00000600,0000.11,0000.63,0000.39,0000.40,-000.05,-000.02,0000.17,0000.06,-000.18,27.1,02.4,0659.9,34.8
2016-09-01T01:57:00Z,0000380,40000600,,,,,,,,,,,,0659.7,34.8
2016-09-01T01:58:00Z,0000380,60000600,,,,,,,,,,27.0,02.5,0658.8,34.8
2016-09-01T01:59:00Z,0000380,20000600,,,,,,,,,,27.0,02.5,0658.8,34.8
2016-09-01T02:00:00Z,0000380,20000600,,,,,,,,,,27.0,02.4,0658.8,34.8
2016-09-01T02:01:00Z,0000380,20000600,,,,,,,,,,27.0,02.4,0658.8,34.8
2016-09-01T02:02:00Z,0000380,20000600,,,,,,,,,,27.0,02.4,0658.8,34.8
2016-09-01T02:03:00Z,0000380,60000600,,,,,,,,,,27.1,02.4,0658.8,34.8
2016-09-01T02:04:00Z,0000380,40000600,0000.15,0000.62,0000.79,-000.10,-000.06,0000.24,0000.02,0000.17,-000.15,27.3,02.4,0659.7,34.8
2016-09-01T02:05:00Z,0000380,00000600,0001.07,0000.64,0000.77,0000.43,0000.05,0000.11,0000.24,0000.05,0000.26,27.3,02.4,0659.8,34.8
2016-09-01T02:06:00Z,0000380,00000600,0000.60,0000.71,0000.56,0000.29,0000.26,0000.31,0000.14,0000.05,-000.07,27.3,02.3,0659.8,34.8
2016-09-01T02:07:00Z,0000380,00000600,0001.51,0000.65,0000.38,0000.26,-000.27,-000.08,-000.08,0000.19,0000.41,27.3,02.4,0659.8,34.8
2016-09-01T02:08:00Z,0000380,00000600,0000.08,0000.26,0000.95,0000.35,0000.11,0000.43,0000.08,0000.05,-000.18,27.3,02.3,0659.8,34.8
2016-09-01T02:09:00Z,0000380,00000600,0001.43,0001.01,0000.99,0000.40,0000.11,0000.21,-000.06,-000.04,-000.04,27.3,02.3,0659.8,34.8
2016-09-01T02:10:00Z,0000380,00000600,0000.39,0000.69,0000.71,0000.50,0000.18,0000.40,0000.11,0000.07,0000.29,27.3,02.3,0659.8,34.8
2016-09-01T02:11:00Z,0000380,00000600,0000.40,0000.08,0000.61,0000.13,0000.22,0000.42,0000.04,-000.01,-000.28,27.3,02.3,0659.8,34.8
2016-09-01T02:12:00Z,0000380,00000600,0001.42,0000.73,0000.72,0000.98,0000.10,-000.18,0000.18,0000.07,0000.11,27.3,02.3,0659.8,34.8
2016-09-01T02:13:00Z,0000380,00000600,0000.63,0000.25,0000.92,-000.06,0000.34,0000.14,0000.01,0000.03,0000.04,27.3,02.4,0659.8,34.8
2016-09-01T02:14:00Z,0000380,00000600,0001.36,0000.44,0000.12,0000.88,0000.70,-000.08,0000.22,0000.08,0000.24,27.3,02.4,0659.8,34.8
2016-09-01T02:15:00Z,0000380,00000600,0000.32,0000.50,0000.36,0000.18,0000.19,0000.10,-000.16,0000.04,0000.01,27.3,02.3,0659.8,34.8
2016-09-01T02:16:00Z,0000380,00000600,0000.23,0000.19,0000.61,-000.14,-000.03,0000.39,0000.03,0000.18,-000.09,27.3,02.3,0659.8,34.8
2016-09-01T02:17:00Z,0000380,00000600,0000.70,0000.02,0000.02,0000.32,0000.13,0000.16,0000.11,-000.29,0000.12,27.3,02.3,0659.9,34.8
2016-09-01T02:18:00Z,0000380,00000600,0001.68,0000.39,0000.35,0000.58,0000.40,0000.32,0000.09,0000.49,0000.20,27.3,02.4,0659.8,34.8
2016-09-01T02:19:00Z,0000380,00000600,0000.47,0000.72,0000.49,0000.05,0000.62,-000.14,0000.07,-000.25,-000.15,27.3,02.3,0659.9,34.8
2016-09-01T02:20:00Z,0000380,00000600,0001.51,0000.23,0000.76,0000.53,0000.29,0000.74,-000.04,0000.19,-000.04,27.3,02.3,0659.9,34.8
2016-09-01T02:21:00Z,0000380,00000600,0001.03,0000.20,0000.58,0000.48,0000.19,0000.11,0000.12,-000.00,0000.21,27.4,02.3,0659.8,34.8
2016-09-01T02:22:00Z,0000380,00000600,0001.07,0001.10,0000.22,0000.79,0000.16,0000.35,-000.04,0000.08,-000.10,27.4,02.4,0659.9,34.8
2016-09-01T02:23:00Z,0000380,00000600,0000.77,0000.53,0000.77,-000.10,0000.29,0000.39,0000.36,0000.11,0000.01,27.4,02.3,0659.9,34.8
2016-09-01T02:24:00Z,0000380,00000600,0000.99,-000.09,0000.66,0000.47,0000.21,0000.03,-000.08,0000.10,0000.35,27.4,02.3,0659.8,34.8
2016-09-01T02:25:00Z,0000380,00000600,0000.77,0000.55,0000.65,-000.39,0000.34,0000.51,-000.03,-000.04,-000.48,27.4,02.4,0659.8,34.8
2016-09-01T02:26:00Z,0000380,00000600,0000.40,0000.70,0000.76,0000.40,0000.03,0000.48,0000.33,-000.10,0000.29,27.4,02.4,0659.8,34.8
2016-09-01T02:27:00Z,0000380,00000600,0000.65,0000.41,0000.25,0000.84,0000.10,0000.23,-000.18,0000.11,0000.05,27.4,02.3,0659.8,34.8
2016-09-01T02:28:00Z,0000380,00000600,0001.24,0000.70,0000.49,0000.18,-000.38,0000.47,0000.06,0000.11,0000.06,27.4,02.3,0659.8,34.8
2016-09-01T02:29:00Z,0000380,00000600,0000.73,0000.86,0000.81,-000.53,0000.48,0000.10,0000.02,-000.05,-000.15,27.3,02.4,0659.8,34.8
2016-09-01T02:30:00Z,0000380,00000600,0001.23,0000.60,0000.29,0000.47,-000.18,0000.35,0000.10,0000.09,0000.26,27.3,02.4,0659.8,34.8
2016-09-01T02:31:00Z,0000380,00000600,0000.76,0000.67,0000.14,0000.29,0000.32,0000.31,-000.02,0000.07,-000.19,27.3,02.4,0659.8,34.8
2016-09-01T02:32:00Z,0000380,00000600,0000.89,0000.60,0000.49,0000.13,-000.06,0000.50,0000.11,0000.02,0000.01,27.3,02.3,0659.8,34.8
2016-09-01T02:33:00Z,0000380,00000600,0001.33,0000.80,0000.65,0000.02,0000.19,0000.21,0000.13,0000.16,0000.37,27.3,02.4,0659.7,34.8
2016-09-01T02:34:00Z,0000380,00000600,0001.56,0000.84,0000.48,0000.37,0000.75,0000.16,-000.08,-000.15,-000.23,27.3,02.4,0659.7,34.8
2016-09-01T02:35:00Z,0000380,00000600,0000.74,0000.21,0000.04,0001.08,0000.24,0000.11,0000.22,0000.22,0000.27,27.3,02.3,0659.7,34.8
2016-09-01T02:36:00Z,0000380,00000600,0000.33,0000.67,-000.11,0000.66,0000.11,-000.18,-000.08,-000.14,-000.16,27.3,02.4,0659.7,34.8
2016-09-01T02:37:00Z,0000380,00000600,0001.37,0001.34,0000.77,0000.55,-000.06,0000.14,0000.18,0000.30,0000.06,27.3,02.3,0659.7,34.8
2016-09-01T02:38:00Z,0000380,00000600,0001.09,0000.53,0000.68,0000.72,-000.34,0000.39,-000.02,-000.06,0000.20,27.3,02.3,0659.7,34.8
2016-09-01T02:39:00Z,0000380,00000600,0002.01,0000.73,0000.59,0000.40,0000.16,0000.35,-000.09,-000.01,-000.22,27.3,02.4,0659.7,34.8
2016-09-01T02:40:00Z,0000380,00000600,0001.07,0000.66,0000.49,0000.19,0000.24,0000.02,0000.28,0000.07,0000.14,27.3,02.4,0659.7,34.8
2016-09-01T02:41:00Z,0000380,00000600,0001.15,0000.31,0000.61,-000.02,0000.14,0000.16,0000.14,0000.25,0000.26,27.3,02.4,0659.7,34.8
2016-09-01T02:42:00Z,0000380,00000600,0001.67,0000.40,0000.92,-000.59,-000.03,-000.48,-000.05,-000.11,-000.11,27.3,02.3,0659.7,34.8
2016-09-01T02:43:00Z,0000380,00000600,0001.28,0000.25,0000.39,0000.58,0000.38,0000.53,-000.04,0000.08,0000.20,27.3,02.3,0659.7,34.8
2016-09-01T02:44:00Z,0000380,00000600,0000.37,0000.50,0000.92,-000.21,0000.16,0000.42,0000.17,-000.18,-000.21,27.4,02.4,0659.7,34.8
2016-09-01T02:45:00Z,0000380,00000600,0000.83,-000.04,0000.04,0000.06,-000.21,-000.31,-000.02,0000.35,0000.04,27.3,02.3,0659.7,34.9
2016-09-01T02:46:00Z,0000380,00000600,0000.43,0000.12,0000.12,-000.11,0000.10,0000.06,-000.15,-000.03,0000.03,27.3,02.3,0659.7,34.9
2016-09-01T02:47:00Z,0000380,00000600,0001.33,0000.48,0000.69,0000.11,0000.22,0000.26,0000.17,-000.22,0000.24,27.3,02.3,0659.7,34.9
2016-09-01T02:48:00Z,0000380,00000600,0000.38,0000.39,0000.00,0000.39,0000.40,0000.29,0000.16,0000.19,-000.29,27.3,02.4,0659.7,34.9
2016-09-01T02:49:00Z,0000380,00000600,0001.60,0000.07,0000.21,0000.26,0000.29,0000.05,-000.13,-000.00,0000.19,27.3,02.4,0659.7,34.9
2016-09-01T02:50:00Z,0000380,00000600,0000.63,0000.72,0000.23,0000.32,0000.34,0000.26,0000.15,0000.08,-000.09,27.3,02.4,0659.7,34.9
2016-09-01T02:51:00Z,0000380,00000600,0000.39,0000.52,0000.79,0000.08,0000.35,0000.11,-000.19,-000.03,0000.17,27.3,02.4,0659.7,34.9
2016-09-01T02:52:00Z,0000380,00000600,0000.45,0000.13,0000.13,0000.32,0000.29,0000.32,0000.27,0000.05,0000.14,27.2,02.4,0659.7,34.9
2016-09-01T02:53:00Z,0000380,00000600,0001.81,0000.88,0000.51,0000.58,0000.50,0000.14,-000.06,0000.09,-000.28,27.2,02.4,0659.7,34.9
2016-09-01T02:54:00Z,0000380,00000600,0000.94,0000.20,0000.59,0000.64,0000.21,0000.13,-000.02,0000.04,0000.13,27.2,02.4,0659.6,34.9
2016-09-01T02:55:00Z,0000380,00000600,0000.08,0000.24,0000.60,0000.31,-000.10,-000.08,0000.18,0000.02,-000.15,27.2,02.4,0659.6,34.9
2016-09-01T02:56:00Z,0000380,00000600,0001.33,0000.37,0001.09,0000.24,0000.14,0000.27,0000.09,0000.12,0000.41,27.2,02.4,0659.6,34.9
2016-09-01T02:57:00Z,0000380,40000600,,,,,,,,,,,,0659.7,34.9
2016-09-01T02:58:00Z,0000380,60000600,,,,,,,,,,27.0,02.4,0658.6,34.9
2016-09-01T02:59:00Z,0000380,20000600,,,,,,,,,,27.0,02.4,0658.6,34.9
2016-09-01T03:00:00Z,0000380,20000600,,,,,,,,,,27.0,02.4,0658.6,34.8
2016-09-01T03:01:00Z,0000380,20000600,,,,,,,,,,27.0,02.4,0658.6,34.8
2016-09-01T03:02:00Z,0000380,20000600,,,,,,,,,,27.0,02.4,0658.6,34.8
2016-09-01T03:03:00Z,0000380,60000600,,,,,,,,,,27.0,02.4,0658.6,34.8
2016-09-01T03:04:00Z,0000380,40000600,0000.49,0000.82,0000.04,-000.14,0000.13,-000.39,-000.00,0000.01,-000.02,27.1,02.5,0659.5,34.8
2016-09-01T03:05:00Z,0000380,00000600,0001.11,0000.41,-000.08,0000.06,-000.21,-000.29,0000.07,0000.09,0000.12,27.1,02.5,0659.5,34.8
2016-09-01T03:06:00Z,0000380,00000600,0000.27,0000.39,-000.02,-000.80,0000.05,0000.03,0000.08,0000.10,0000.04,27.1,02.5,0659.5,34.8
2016-09-01T03:07:00Z,0000380,00000600,0000.85,0000.45,0000.18,-000.16,0000.10,-000.05,-000.00,0000.06,0000.17,27.1,02.6,0659.5,34.8
2016-09-01T03:08:00Z,0000380,00000600,0000.61,0000.37,0000.25,-000.48,0000.05,0000.29,0000.09,-000.06,-000.13,27.1,02.6,0659.5,34.8
2016-09-01T03:09:00Z,0000380,00000600,0001.74,0000.77,0000.15,0000.14,-000.06,-000.24,0000.03,0000.07,-000.08,27.1,02.5,0659.5,34.8
2016-09-01T03:10:00Z,0000380,00000600,0000.66,0000.19,0000.02,-000.37,0000.03,-000.05,0000.10,0000.01,0000.16,27.1,02.6,0659.4,34.8
2016-09-01T03:11:00Z,0000380,00000600,-000.81,0000.21,0000.06,0000.00,-000.13,0000.03,0000.00,0000.12,0000.25,27.1,02.5,0659.4,34.8
2016-09-01T03:12:00Z,0000380,00000600,-000.19,0000.00,-000.08,-000.13,-000.14,0000.27,0000.21,0000.03,-000.31,27.1,02.5,0659.4,34.8